TELKOM 3S (41944 NORAD) Tracking and Keplerian Element Data

This shows tracking and keplerian element data for the satellite.

Feedback or suggestion? Click here.




ElementValue
Catalog41944
NameTELKOM 3S
Epoch Orbit1676
Epoch Day261.90291752
Epoch Year2021
RAAN187.2231
Inclination0.0144
Eccentricity0.0002383
Argument of Perigee344.1872
Mean Anonmoly269.6747
Mean Motion1.00272257
Decay Rate-3.87E-06
L11 41944U 17007A 21261.90291752 -.00000387 00000-0 00000-0 0 9993
L22 41944 0.0144 187.2231 0002383 344.1872 269.6747 1.00272257 16769

Live tracking and technical data element details for TELKOM 3S (NORAD 41944). TELKOM 3S can be tracked NOW for your location showing map with azimuth and elevation plus other details from your city location.

Track the satellite on the map from your city or location and see movement details for azimuth, elevation, latitude, longitude, range, height, and movement on the map or in text.







IsCatalogInMostPopularTable: catalog: 41944, numindb: 569
Update: records affected: 1



GetName: 41944 TELKOM 3S

Hit Count: updated at: Sun, 26 Sep 2021 00:29:13 GMT